Location: Davayat
(45.9471°N, 3.1105°E)
Time: 14:14:19
(UTC+00:00)

IRS-1C Rocket - Pass Details

Date: 01 December 2020
Orbit: 800 x 806 km, 99.0° (Epoch: 26 January)

Event Time Altitude Azimuth Distance (km) Brightness Sun altitude
Rises 17:37:27 0° 153° (SSE) 3,309 7.2 -15.7°
Reaches altitude 10° 17:39:48 10° 150° (SSE) 2,382 6.4 -16.1°
Maximum altitude 17:44:58 61° 71° (ENE) 911 4.1 -16.9°
Drops below altitude 10° 17:50:12 10° 352° (N) 2,398 6.5 -17.8°
Sets 17:52:33 0° 349° (N) 3,332 7.3 -18.2°
